Time,TemperatureF,DewpointF,PressureIn,WindDirection,WindDirectionDegrees,WindSpeedMPH,WindSpeedGustMPH,Humidity,HourlyPrecipIn,Conditions,Clouds,dailyrainin,SoftwareType,DateUTC
2013-06-20 00:05:00,81.7,29.5,29.61,ESE,105,0.0,1.0,15,0.00,,,0.00,Wunderground v.1.15,2013-06-20 07:05:00,
2013-06-20 00:10:00,81.4,30.9,29.61,ESE,105,0.0,0.0,16,0.00,,,0.00,Wunderground v.1.15,2013-06-20 07:10:00,
2013-06-20 00:16:00,81.6,31.0,29.61,ESE,105,0.0,0.0,16,0.00,,,0.00,Wunderground v.1.15,2013-06-20 07:16:00,
2013-06-20 00:22:00,80.5,30.2,29.61,SSE,159,0.0,0.0,16,0.00,,,0.00,Wunderground v.1.15,2013-06-20 07:22:00,
2013-06-20 00:27:00,80.7,30.3,29.61,SSE,159,0.0,1.0,16,0.00,,,0.00,Wunderground v.1.15,2013-06-20 07:27:00,
2013-06-20 00:32:00,80.5,30.2,29.61,South,169,0.0,0.0,16,0.00,,,0.00,Wunderground v.1.15,2013-06-20 07:32:00,
2013-06-20 00:37:00,80.9,30.5,29.61,South,172,0.0,0.0,16,0.00,,,0.00,Wunderground v.1.15,2013-06-20 07:37:00,
2013-06-20 00:43:00,80.1,29.8,29.61,South,172,0.0,0.0,16,0.00,,,0.00,Wunderground v.1.15,2013-06-20 07:43:00,
2013-06-20 00:49:00,79.7,31.0,29.61,South,172,0.0,0.0,17,0.00,,,0.00,Wunderground v.1.15,2013-06-20 07:49:00,
2013-06-20 00:55:00,79.9,29.7,29.61,South,172,0.0,0.0,16,0.00,,,0.00,Wunderground v.1.15,2013-06-20 07:55:00,
2013-06-20 01:00:00,79.3,29.2,29.61,South,172,0.0,0.0,16,0.00,,,0.00,Wunderground v.1.15,2013-06-20 08:00:00,
2013-06-20 01:05:00,79.8,31.1,29.61,South,172,0.0,0.0,17,0.00,,,0.00,Wunderground v.1.15,2013-06-20 08:05:00,
2013-06-20 01:10:00,78.9,30.4,29.61,South,172,0.0,0.0,17,0.00,,,0.00,Wunderground v.1.15,2013-06-20 08:10:00,
2013-06-20 01:15:00,77.1,30.3,29.61,South,172,0.0,0.0,18,0.00,,,0.00,Wunderground v.1.15,2013-06-20 08:15:00,
2013-06-20 01:21:00,78.0,31.0,29.61,South,172,0.0,0.0,18,0.00,,,0.00,Wunderground v.1.15,2013-06-20 08:21:00,
2013-06-20 01:26:00,78.7,30.2,29.61,South,172,0.0,0.0,17,0.00,,,0.00,Wunderground v.1.15,2013-06-20 08:26:00,
2013-06-20 01:32:00,78.0,29.6,29.61,South,173,0.0,0.0,17,0.00,,,0.00,Wunderground v.1.15,2013-06-20 08:32:00,
2013-06-20 01:38:00,78.8,30.3,29.61,South,175,0.0,0.0,17,0.00,,,0.00,Wunderground v.1.15,2013-06-20 08:38:00,
2013-06-20 01:44:00,79.1,30.5,29.61,West,268,0.0,1.0,17,0.00,,,0.00,Wunderground v.1.15,2013-06-20 08:44:00,
2013-06-20 01:50:00,78.9,30.4,29.61,West,268,0.0,0.0,17,0.00,,,0.00,Wunderground v.1.15,2013-06-20 08:50:00,
2013-06-20 01:56:00,79.1,30.5,29.61,West,268,0.0,0.0,17,0.00,,,0.00,Wunderground v.1.15,2013-06-20 08:56:00,
2013-06-20 02:01:00,78.4,30.0,29.61,West,269,0.0,0.0,17,0.00,,,0.00,Wunderground v.1.15,2013-06-20 09:01:00,
2013-06-20 02:06:00,78.8,31.7,29.60,WNW,300,0.0,3.0,18,0.00,,,0.00,Wunderground v.1.15,2013-06-20 09:06:00,
2013-06-20 02:11:00,78.7,30.2,29.60,WNW,300,0.0,0.0,17,0.00,,,0.00,Wunderground v.1.15,2013-06-20 09:11:00,
2013-06-20 02:16:00,78.7,30.2,29.60,WNW,300,1.0,1.0,17,0.00,,,0.00,Wunderground v.1.15,2013-06-20 09:16:00,
2013-06-20 02:22:00,78.7,30.2,29.60,WNW,300,0.0,0.0,17,0.00,,,0.00,Wunderground v.1.15,2013-06-20 09:22:00,
2013-06-20 02:27:00,77.9,31.0,29.60,WNW,300,0.0,2.0,18,0.00,,,0.00,Wunderground v.1.15,2013-06-20 09:27:00,
2013-06-20 02:32:00,77.2,29.0,29.60,WNW,300,0.0,0.0,17,0.00,,,0.00,Wunderground v.1.15,2013-06-20 09:32:00,
2013-06-20 02:37:00,75.5,29.0,29.60,East,80,1.0,1.0,18,0.00,,,0.00,Wunderground v.1.15,2013-06-20 09:37:00,
2013-06-20 02:42:00,74.2,30.5,29.61,East,80,0.0,0.0,20,0.00,,,0.00,Wunderground v.1.15,2013-06-20 09:42:00,
2013-06-20 02:47:00,73.6,30.0,29.61,ENE,78,0.0,0.0,20,0.00,,,0.00,Wunderground v.1.15,2013-06-20 09:47:00,
2013-06-20 02:53:00,74.2,30.5,29.61,ENE,76,0.0,0.0,20,0.00,,,0.00,Wunderground v.1.15,2013-06-20 09:53:00,
2013-06-20 02:58:00,73.3,29.8,29.61,ENE,76,0.0,0.0,20,0.00,,,0.00,Wunderground v.1.15,2013-06-20 09:58:00,
2013-06-20 03:03:00,72.6,31.5,29.61,ENE,76,0.0,1.0,22,0.00,,,0.00,Wunderground v.1.15,2013-06-20 10:03:00,
2013-06-20 03:08:00,71.6,30.7,29.61,ENE,76,0.0,1.0,22,0.00,,,0.00,Wunderground v.1.15,2013-06-20 10:08:00,
2013-06-20 03:13:00,71.9,29.8,29.61,ENE,76,0.0,0.0,21,0.00,,,0.00,Wunderground v.1.15,2013-06-20 10:13:00,
2013-06-20 03:18:00,70.9,31.2,29.61,ENE,76,0.0,0.0,23,0.00,,,0.00,Wunderground v.1.15,2013-06-20 10:18:00,
2013-06-20 03:23:00,71.5,31.7,29.61,ENE,76,0.0,0.0,23,0.00,,,0.00,Wunderground v.1.15,2013-06-20 10:23:00,
2013-06-20 03:28:00,71.2,31.5,29.61,ENE,76,0.0,0.0,23,0.00,,,0.00,Wunderground v.1.15,2013-06-20 10:28:00,
2013-06-20 03:34:00,71.3,31.6,29.61,East,84,0.0,0.0,23,0.00,,,0.00,Wunderground v.1.15,2013-06-20 10:34:00,
2013-06-20 03:39:00,71.4,30.5,29.61,East,86,0.0,0.0,22,0.00,,,0.00,Wunderground v.1.15,2013-06-20 10:39:00,
2013-06-20 03:44:00,70.9,30.1,29.61,East,86,0.0,0.0,22,0.00,,,0.00,Wunderground v.1.15,2013-06-20 10:44:00,
2013-06-20 03:49:00,70.1,28.3,29.61,East,86,0.0,0.0,21,0.00,,,0.00,Wunderground v.1.15,2013-06-20 10:49:00,
2013-06-20 03:54:00,69.9,31.4,29.62,East,87,0.0,1.0,24,0.00,,,0.00,Wunderground v.1.15,2013-06-20 10:54:00,
2013-06-20 03:59:00,70.5,31.9,29.62,East,87,0.0,1.0,24,0.00,,,0.00,Wunderground v.1.15,2013-06-20 10:59:00,
2013-06-20 04:04:00,70.1,30.6,29.62,East,87,0.0,0.0,23,0.00,,,0.00,Wunderground v.1.15,2013-06-20 11:04:00,
2013-06-20 04:09:00,70.1,31.6,29.62,East,87,0.0,1.0,24,0.00,,,0.00,Wunderground v.1.15,2013-06-20 11:09:00,
2013-06-20 04:15:00,70.3,31.8,29.62,South,174,3.0,3.0,24,0.00,,,0.00,Wunderground v.1.15,2013-06-20 11:15:00,
2013-06-20 04:20:00,70.4,31.9,29.62,South,179,1.0,1.0,24,0.00,,,0.00,Wunderground v.1.15,2013-06-20 11:20:00,
2013-06-20 04:25:00,70.3,31.8,29.62,South,180,0.0,1.0,24,0.00,,,0.00,Wunderground v.1.15,2013-06-20 11:25:00,
2013-06-20 04:30:00,70.0,31.5,29.62,SSE,167,0.0,0.0,24,0.00,,,0.00,Wunderground v.1.15,2013-06-20 11:30:00,
2013-06-20 04:35:00,69.9,31.4,29.62,South,181,0.0,2.0,24,0.00,,,0.00,Wunderground v.1.15,2013-06-20 11:35:00,
2013-06-20 04:40:00,69.7,32.3,29.63,South,181,0.0,0.0,25,0.00,,,0.00,Wunderground v.1.15,2013-06-20 11:40:00,
2013-06-20 04:45:00,70.0,32.5,29.63,South,182,2.0,5.0,25,0.00,,,0.00,Wunderground v.1.15,2013-06-20 11:45:00,
2013-06-20 04:50:00,71.3,32.6,29.63,SE,144,3.0,3.0,24,0.00,,,0.00,Wunderground v.1.15,2013-06-20 11:50:00,
2013-06-20 04:56:00,72.2,32.3,29.63,South,188,1.0,8.0,23,0.00,,,0.00,Wunderground v.1.15,2013-06-20 11:56:00,
2013-06-20 05:01:00,72.7,32.7,29.63,SSW,199,4.0,7.0,23,0.00,,,0.00,Wunderground v.1.15,2013-06-20 12:01:00,
2013-06-20 05:06:00,73.0,33.0,29.63,South,180,3.0,7.0,23,0.00,,,0.00,Wunderground v.1.15,2013-06-20 12:06:00,
2013-06-20 05:11:00,73.3,33.2,29.63,SSW,198,5.0,8.0,23,0.00,,,0.00,Wunderground v.1.15,2013-06-20 12:11:00,
2013-06-20 05:16:00,73.4,32.2,29.64,South,175,3.0,8.0,22,0.00,,,0.00,Wunderground v.1.15,2013-06-20 12:16:00,
2013-06-20 05:21:00,73.5,32.3,29.64,South,190,8.0,8.0,22,0.00,,,0.00,Wunderground v.1.15,2013-06-20 12:21:00,
2013-06-20 05:27:00,73.5,32.3,29.64,SSW,194,3.0,8.0,22,0.00,,,0.00,Wunderground v.1.15,2013-06-20 12:27:00,
2013-06-20 05:32:00,72.9,31.8,29.64,SSW,202,1.0,6.0,22,0.00,,,0.00,Wunderground v.1.15,2013-06-20 12:32:00,
2013-06-20 05:37:00,72.2,32.3,29.64,SSW,198,2.0,6.0,23,0.00,,,0.00,Wunderground v.1.15,2013-06-20 12:37:00,
2013-06-20 05:42:00,72.1,32.2,29.64,SSW,209,3.0,3.0,23,0.00,,,0.00,Wunderground v.1.15,2013-06-20 12:42:00,
2013-06-20 05:47:00,72.7,31.6,29.64,SSW,205,0.0,3.0,22,0.00,,,0.00,Wunderground v.1.15,2013-06-20 12:47:00,
2013-06-20 05:52:00,73.2,32.1,29.64,SSW,197,0.0,5.0,22,0.00,,,0.00,Wunderground v.1.15,2013-06-20 12:52:00,
2013-06-20 05:57:00,73.8,31.4,29.64,SSW,198,1.0,5.0,21,0.00,,,0.00,Wunderground v.1.15,2013-06-20 12:57:00,
2013-06-20 06:02:00,74.2,31.7,29.65,SSW,204,4.0,5.0,21,0.00,,,0.00,Wunderground v.1.15,2013-06-20 13:02:00,
2013-06-20 06:07:00,74.8,32.2,29.65,SSW,204,4.0,5.0,21,0.00,,,0.00,Wunderground v.1.15,2013-06-20 13:07:00,
2013-06-20 06:12:00,75.5,31.6,29.65,SSW,192,4.0,5.0,20,0.00,,,0.00,Wunderground v.1.15,2013-06-20 13:12:00,
2013-06-20 06:18:00,76.6,32.5,29.65,SSW,196,4.0,5.0,20,0.00,,,0.00,Wunderground v.1.15,2013-06-20 13:18:00,
2013-06-20 06:23:00,77.6,32.1,29.66,South,189,3.0,3.0,19,0.00,,,0.00,Wunderground v.1.15,2013-06-20 13:23:00,
2013-06-20 06:28:00,78.3,31.3,29.66,South,175,0.0,4.0,18,0.00,,,0.00,Wunderground v.1.15,2013-06-20 13:28:00,
2013-06-20 06:33:00,78.9,31.8,29.66,SSW,196,2.0,3.0,18,0.00,,,0.00,Wunderground v.1.15,2013-06-20 13:33:00,
2013-06-20 06:38:00,79.1,31.9,29.66,South,175,2.0,6.0,18,0.00,,,0.00,Wunderground v.1.15,2013-06-20 13:38:00,
2013-06-20 06:43:00,79.4,32.2,29.66,South,177,2.0,7.0,18,0.00,,,0.00,Wunderground v.1.15,2013-06-20 13:43:00,
2013-06-20 06:48:00,80.0,31.2,29.66,SSW,192,5.0,8.0,17,0.00,,,0.00,Wunderground v.1.15,2013-06-20 13:48:00,
2013-06-20 06:53:00,80.3,31.5,29.66,SW,215,5.0,9.0,17,0.00,,,0.00,Wunderground v.1.15,2013-06-20 13:53:00,
2013-06-20 06:58:00,81.2,32.2,29.67,South,191,2.0,9.0,17,0.00,,,0.00,Wunderground v.1.15,2013-06-20 13:58:00,
2013-06-20 07:04:00,82.1,31.4,29.67,SSW,193,3.0,9.0,16,0.00,,,0.00,Wunderground v.1.15,2013-06-20 14:04:00,
2013-06-20 07:09:00,82.7,31.9,29.67,South,178,2.0,9.0,16,0.00,,,0.00,Wunderground v.1.15,2013-06-20 14:09:00,
2013-06-20 07:14:00,83.4,30.9,29.67,South,176,4.0,7.0,15,0.00,,,0.00,Wunderground v.1.15,2013-06-20 14:14:00,
2013-06-20 07:19:00,83.7,31.1,29.67,South,169,6.0,11.0,15,0.00,,,0.00,Wunderground v.1.15,2013-06-20 14:19:00,
2013-06-20 07:24:00,83.8,31.2,29.67,South,174,4.0,10.0,15,0.00,,,0.00,Wunderground v.1.15,2013-06-20 14:24:00,
2013-06-20 07:29:00,84.3,31.6,29.67,South,171,4.0,10.0,15,0.00,,,0.00,Wunderground v.1.15,2013-06-20 14:29:00,
2013-06-20 07:34:00,84.8,32.0,29.68,SSE,165,6.0,10.0,15,0.00,,,0.00,Wunderground v.1.15,2013-06-20 14:34:00,
2013-06-20 07:40:00,85.2,30.6,29.68,South,180,6.0,6.0,14,0.00,,,0.00,Wunderground v.1.15,2013-06-20 14:40:00,
2013-06-20 07:45:00,85.4,30.8,29.68,SSW,209,5.0,8.0,14,0.00,,,0.00,Wunderground v.1.15,2013-06-20 14:45:00,
2013-06-20 07:50:00,86.0,31.2,29.68,South,178,4.0,5.0,14,0.00,,,0.00,Wunderground v.1.15,2013-06-20 14:50:00,
2013-06-20 07:55:00,86.4,31.6,29.68,South,190,5.0,9.0,14,0.00,,,0.00,Wunderground v.1.15,2013-06-20 14:55:00,
2013-06-20 08:00:00,87.1,30.3,29.68,SSW,194,8.0,8.0,13,0.00,,,0.00,Wunderground v.1.15,2013-06-20 15:00:00,
2013-06-20 08:05:00,87.6,30.7,29.68,South,177,3.0,8.0,13,0.00,,,0.00,Wunderground v.1.15,2013-06-20 15:05:00,
2013-06-20 08:10:00,87.8,28.9,29.68,South,191,6.0,7.0,12,0.00,,,0.00,Wunderground v.1.15,2013-06-20 15:10:00,
2013-06-20 08:15:00,88.2,29.2,29.68,South,185,2.0,9.0,12,0.00,,,0.00,Wunderground v.1.15,2013-06-20 15:15:00,
2013-06-20 08:20:00,88.8,29.6,29.68,South,190,6.0,8.0,12,0.00,,,0.00,Wunderground v.1.15,2013-06-20 15:20:00,
2013-06-20 08:25:00,89.0,27.7,29.68,South,178,4.0,9.0,11,0.00,,,0.00,Wunderground v.1.15,2013-06-20 15:25:00,
2013-06-20 08:31:00,89.2,27.8,29.68,South,180,4.0,7.0,11,0.00,,,0.00,Wunderground v.1.15,2013-06-20 15:31:00,
2013-06-20 08:36:00,89.7,25.9,29.68,SSE,161,7.0,11.0,10,0.00,,,0.00,Wunderground v.1.15,2013-06-20 15:36:00,
2013-06-20 08:41:00,90.2,26.3,29.68,South,175,1.0,6.0,10,0.00,,,0.00,Wunderground v.1.15,2013-06-20 15:41:00,
2013-06-20 08:46:00,90.7,24.1,29.68,South,181,3.0,7.0,9,0.00,,,0.00,Wunderground v.1.15,2013-06-20 15:46:00,
2013-06-20 08:51:00,91.2,24.5,29.68,SSW,196,2.0,7.0,9,0.00,,,0.00,Wunderground v.1.15,2013-06-20 15:51:00,
2013-06-20 08:56:00,91.1,24.4,29.68,South,187,7.0,8.0,9,0.00,,,0.00,Wunderground v.1.15,2013-06-20 15:56:00,
2013-06-20 09:01:00,91.8,24.9,29.68,South,177,10.0,10.0,9,0.00,,,0.00,Wunderground v.1.15,2013-06-20 16:01:00,
2013-06-20 09:06:00,92.2,22.4,29.68,SSW,195,7.0,10.0,8,0.00,,,0.00,Wunderground v.1.15,2013-06-20 16:06:00,
2013-06-20 09:12:00,92.5,22.6,29.68,South,180,7.0,7.0,8,0.00,,,0.00,Wunderground v.1.15,2013-06-20 16:12:00,
2013-06-20 09:17:00,92.4,22.6,29.68,South,176,1.0,8.0,8,0.00,,,0.00,Wunderground v.1.15,2013-06-20 16:17:00,
2013-06-20 09:22:00,92.5,19.5,29.67,SSE,151,5.0,7.0,7,0.00,,,0.00,Wunderground v.1.15,2013-06-20 16:22:00,
2013-06-20 09:27:00,93.2,20.0,29.67,South,181,7.0,7.0,7,0.00,,,0.00,Wunderground v.1.15,2013-06-20 16:27:00,
2013-06-20 09:32:00,93.8,20.4,29.67,SSE,166,7.0,7.0,7,0.00,,,0.00,Wunderground v.1.15,2013-06-20 16:32:00,
2013-06-20 09:38:00,93.8,20.4,29.67,SW,223,0.0,10.0,7,0.00,,,0.00,Wunderground v.1.15,2013-06-20 16:38:00,
2013-06-20 09:43:00,94.1,17.0,29.67,South,173,4.0,7.0,6,0.00,,,0.00,Wunderground v.1.15,2013-06-20 16:43:00,
2013-06-20 09:48:00,94.9,17.6,29.67,South,177,5.0,8.0,6,0.00,,,0.00,Wunderground v.1.15,2013-06-20 16:48:00,
2013-06-20 09:53:00,94.3,17.2,29.67,SSW,207,7.0,7.0,6,0.00,,,0.00,Wunderground v.1.15,2013-06-20 16:53:00,
2013-06-20 09:58:00,95.1,17.8,29.67,SSW,197,4.0,8.0,6,0.00,,,0.00,Wunderground v.1.15,2013-06-20 16:58:00,
2013-06-20 10:03:00,94.2,17.1,29.67,SSE,163,3.0,6.0,6,0.00,,,0.00,Wunderground v.1.15,2013-06-20 17:03:00,
2013-06-20 10:08:00,95.0,17.7,29.68,SE,143,5.0,8.0,6,0.00,,,0.00,Wunderground v.1.15,2013-06-20 17:08:00,
2013-06-20 10:13:00,95.7,14.0,29.68,South,183,5.0,8.0,5,0.00,,,0.00,Wunderground v.1.15,2013-06-20 17:13:00,
2013-06-20 10:18:00,95.6,13.9,29.68,SSW,200,4.0,10.0,5,0.00,,,0.00,Wunderground v.1.15,2013-06-20 17:18:00,
2013-06-20 10:24:00,96.6,14.6,29.68,West,265,6.0,6.0,5,0.00,,,0.00,Wunderground v.1.15,2013-06-20 17:24:00,
2013-06-20 10:29:00,95.7,14.0,29.68,SSW,210,2.0,6.0,5,0.00,,,0.00,Wunderground v.1.15,2013-06-20 17:29:00,
2013-06-20 10:34:00,95.7,14.0,29.68,WNW,286,8.0,8.0,5,0.00,,,0.00,Wunderground v.1.15,2013-06-20 17:34:00,
2013-06-20 10:39:00,95.3,13.7,29.68,NW,315,1.0,8.0,5,0.00,,,0.00,Wunderground v.1.15,2013-06-20 17:39:00,
2013-06-20 10:44:00,95.9,14.1,29.67,WNW,288,5.0,9.0,5,0.00,,,0.00,Wunderground v.1.15,2013-06-20 17:44:00,
2013-06-20 10:50:00,96.5,9.5,29.67,NW,316,4.0,4.0,4,0.00,,,0.00,Wunderground v.1.15,2013-06-20 17:50:00,
2013-06-20 10:55:00,96.7,9.6,29.67,North,350,4.0,12.0,4,0.00,,,0.00,Wunderground v.1.15,2013-06-20 17:55:00,
2013-06-20 11:00:00,96.1,14.3,29.67,NW,313,4.0,4.0,5,0.00,,,0.00,Wunderground v.1.15,2013-06-20 18:00:00,
2013-06-20 11:05:00,97.1,15.0,29.67,NW,317,1.0,9.0,5,0.00,,,0.00,Wunderground v.1.15,2013-06-20 18:05:00,
2013-06-20 11:10:00,97.3,10.0,29.67,NNW,336,1.0,3.0,4,0.00,,,0.00,Wunderground v.1.15,2013-06-20 18:10:00,
2013-06-20 11:15:00,98.1,10.6,29.67,SW,215,2.0,6.0,4,0.00,,,0.00,Wunderground v.1.15,2013-06-20 18:15:00,
2013-06-20 11:20:00,97.9,10.4,29.67,WNW,302,2.0,7.0,4,0.00,,,0.00,Wunderground v.1.15,2013-06-20 18:20:00,
2013-06-20 11:26:00,99.0,11.2,29.66,SSW,194,4.0,7.0,4,0.00,,,0.00,Wunderground v.1.15,2013-06-20 18:26:00,
2013-06-20 11:31:00,99.2,11.3,29.66,South,191,1.0,4.0,4,0.00,,,0.00,Wunderground v.1.15,2013-06-20 18:31:00,
2013-06-20 11:36:00,98.8,11.1,29.66,South,184,7.0,8.0,4,0.00,,,0.00,Wunderground v.1.15,2013-06-20 18:36:00,
2013-06-20 11:41:00,98.7,11.0,29.66,WNW,290,8.0,8.0,4,0.00,,,0.00,Wunderground v.1.15,2013-06-20 18:41:00,
2013-06-20 11:46:00,97.8,10.4,29.66,North,360,0.0,8.0,4,0.00,,,0.00,Wunderground v.1.15,2013-06-20 18:46:00,
2013-06-20 11:51:00,98.3,10.7,29.66,NW,317,9.0,9.0,4,0.00,,,0.00,Wunderground v.1.15,2013-06-20 18:51:00,
2013-06-20 11:56:00,98.2,10.7,29.66,NNW,329,2.0,11.0,4,0.00,,,0.00,Wunderground v.1.15,2013-06-20 18:56:00,
2013-06-20 12:01:00,98.2,10.7,29.65,SSE,148,2.0,5.0,4,0.00,,,0.00,Wunderground v.1.15,2013-06-20 19:01:00,
2013-06-20 12:06:00,98.2,10.7,29.65,East,92,6.0,6.0,4,0.00,,,0.00,Wunderground v.1.15,2013-06-20 19:06:00,
2013-06-20 12:12:00,99.4,5.1,29.65,SSW,213,3.0,7.0,3,0.00,,,0.00,Wunderground v.1.15,2013-06-20 19:12:00,
2013-06-20 12:17:00,100.4,5.7,29.65,SE,146,0.0,7.0,3,0.00,,,0.00,Wunderground v.1.15,2013-06-20 19:17:00,
2013-06-20 12:22:00,101.2,6.3,29.65,West,270,3.0,9.0,3,0.00,,,0.00,Wunderground v.1.15,2013-06-20 19:22:00,
2013-06-20 12:27:00,101.0,6.1,29.65,SW,229,1.0,11.0,3,0.00,,,0.00,Wunderground v.1.15,2013-06-20 19:27:00,
2013-06-20 12:32:00,102.1,6.9,29.65,South,171,2.0,5.0,3,0.00,,,0.00,Wunderground v.1.15,2013-06-20 19:32:00,
2013-06-20 12:37:00,101.0,6.1,29.65,SSW,206,3.0,7.0,3,0.00,,,0.00,Wunderground v.1.15,2013-06-20 19:37:00,
2013-06-20 12:43:00,101.4,-2.3,29.64,WSW,252,1.0,6.0,2,0.00,,,0.00,Wunderground v.1.15,2013-06-20 19:43:00,
2013-06-20 12:48:00,100.6,-2.8,29.64,WSW,253,1.0,8.0,2,0.00,,,0.00,Wunderground v.1.15,2013-06-20 19:48:00,
2013-06-20 12:53:00,101.9,-2.0,29.64,SW,229,6.0,6.0,2,0.00,,,0.00,Wunderground v.1.15,2013-06-20 19:53:00,
2013-06-20 12:58:00,103.0,-1.3,29.64,WNW,291,6.0,10.0,2,0.00,,,0.00,Wunderground v.1.15,2013-06-20 19:58:00,
2013-06-20 13:03:00,103.5,-1.0,29.63,West,276,6.0,9.0,2,0.00,,,0.00,Wunderground v.1.15,2013-06-20 20:03:00,
2013-06-20 13:08:00,102.3,-1.8,29.63,SW,225,5.0,10.0,2,0.00,,,0.00,Wunderground v.1.15,2013-06-20 20:08:00,
2013-06-20 13:14:00,102.4,-1.7,29.63,SW,236,2.0,9.0,2,0.00,,,0.00,Wunderground v.1.15,2013-06-20 20:14:00,
2013-06-20 13:19:00,102.2,6.9,29.63,NNW,327,1.0,9.0,3,0.00,,,0.00,Wunderground v.1.15,2013-06-20 20:19:00,
2013-06-20 13:24:00,103.8,-0.8,29.63,NW,324,8.0,13.0,2,0.00,,,0.00,Wunderground v.1.15,2013-06-20 20:24:00,
2013-06-20 13:29:00,103.4,-1.1,29.62,SW,232,2.0,13.0,2,0.00,,,0.00,Wunderground v.1.15,2013-06-20 20:29:00,
2013-06-20 13:35:00,103.1,-1.3,29.62,NW,315,4.0,11.0,2,0.00,,,0.00,Wunderground v.1.15,2013-06-20 20:35:00,
2013-06-20 13:40:00,103.2,-1.2,29.62,NW,326,1.0,6.0,2,0.00,,,0.00,Wunderground v.1.15,2013-06-20 20:40:00,
2013-06-20 13:45:00,102.3,-1.8,29.62,WNW,292,9.0,13.0,2,0.00,,,0.00,Wunderground v.1.15,2013-06-20 20:45:00,
2013-06-20 13:50:00,102.7,-1.5,29.62,WSW,241,3.0,5.0,2,0.00,,,0.00,Wunderground v.1.15,2013-06-20 20:50:00,
2013-06-20 13:55:00,103.3,-1.1,29.62,SSW,192,4.0,8.0,2,0.00,,,0.00,Wunderground v.1.15,2013-06-20 20:55:00,
2013-06-20 14:00:00,103.2,-1.2,29.62,SSW,196,4.0,4.0,2,0.00,,,0.00,Wunderground v.1.15,2013-06-20 21:00:00,
2013-06-20 14:05:00,103.7,-0.9,29.62,West,281,7.0,9.0,2,0.00,,,0.00,Wunderground v.1.15,2013-06-20 21:05:00,
2013-06-20 14:11:00,103.3,-1.1,29.61,West,271,8.0,8.0,2,0.00,,,0.00,Wunderground v.1.15,2013-06-20 21:11:00,
2013-06-20 14:16:00,103.6,-0.9,29.61,SW,227,6.0,9.0,2,0.00,,,0.00,Wunderground v.1.15,2013-06-20 21:16:00,
2013-06-20 14:21:00,104.2,-0.6,29.61,South,176,1.0,8.0,2,0.00,,,0.00,Wunderground v.1.15,2013-06-20 21:21:00,
2013-06-20 14:26:00,104.8,-0.2,29.61,SW,217,5.0,13.0,2,0.00,,,0.00,Wunderground v.1.15,2013-06-20 21:26:00,
2013-06-20 14:31:00,103.9,-0.8,29.61,WSW,239,4.0,6.0,2,0.00,,,0.00,Wunderground v.1.15,2013-06-20 21:31:00,
2013-06-20 14:36:00,104.1,-0.6,29.60,WSW,242,1.0,7.0,2,0.00,,,0.00,Wunderground v.1.15,2013-06-20 21:36:00,
2013-06-20 14:41:00,103.9,-0.8,29.60,SW,224,3.0,5.0,2,0.00,,,0.00,Wunderground v.1.15,2013-06-20 21:41:00,
2013-06-20 14:46:00,103.7,-0.9,29.60,NW,314,7.0,9.0,2,0.00,,,0.00,Wunderground v.1.15,2013-06-20 21:46:00,
2013-06-20 14:51:00,103.9,-0.8,29.60,WNW,297,7.0,8.0,2,0.00,,,0.00,Wunderground v.1.15,2013-06-20 21:51:00,
2013-06-20 14:56:00,104.0,-0.7,29.60,SW,223,2.0,8.0,2,0.00,,,0.00,Wunderground v.1.15,2013-06-20 21:56:00,
2013-06-20 15:02:00,104.4,-0.4,29.60,WSW,257,0.0,8.0,2,0.00,,,0.00,Wunderground v.1.15,2013-06-20 22:02:00,
2013-06-20 15:07:00,104.4,-0.4,29.59,SW,223,5.0,12.0,2,0.00,,,0.00,Wunderground v.1.15,2013-06-20 22:07:00,
2013-06-20 15:12:00,103.5,-1.0,29.59,WNW,298,1.0,4.0,2,0.00,,,0.00,Wunderground v.1.15,2013-06-20 22:12:00,
2013-06-20 15:17:00,104.8,-0.2,29.59,NNW,338,6.0,9.0,2,0.00,,,0.00,Wunderground v.1.15,2013-06-20 22:17:00,
2013-06-20 15:22:00,104.8,-0.2,29.59,WNW,294,4.0,7.0,2,0.00,,,0.00,Wunderground v.1.15,2013-06-20 22:22:00,
2013-06-20 15:27:00,103.7,-0.9,29.59,WSW,249,0.0,7.0,2,0.00,,,0.00,Wunderground v.1.15,2013-06-20 22:27:00,
2013-06-20 15:32:00,104.3,-0.5,29.59,SW,236,1.0,11.0,2,0.00,,,0.00,Wunderground v.1.15,2013-06-20 22:32:00,
2013-06-20 15:38:00,103.2,-1.2,29.59,WSW,256,1.0,11.0,2,0.00,,,0.00,Wunderground v.1.15,2013-06-20 22:38:00,
2013-06-20 15:43:00,104.4,-0.4,29.59,NW,321,1.0,8.0,2,0.00,,,0.00,Wunderground v.1.15,2013-06-20 22:43:00,
2013-06-20 15:48:00,104.0,-0.7,29.58,SW,227,1.0,9.0,2,0.00,,,0.00,Wunderground v.1.15,2013-06-20 22:48:00,
2013-06-20 15:53:00,105.2,0.1,29.58,NW,313,4.0,5.0,2,0.00,,,0.00,Wunderground v.1.15,2013-06-20 22:53:00,
2013-06-20 15:58:00,104.8,-0.2,29.58,NW,314,3.0,7.0,2,0.00,,,0.00,Wunderground v.1.15,2013-06-20 22:58:00,
2013-06-20 16:03:00,103.9,-0.8,29.58,WNW,293,2.0,7.0,2,0.00,,,0.00,Wunderground v.1.15,2013-06-20 23:03:00,
2013-06-20 16:08:00,105.0,-0.1,29.58,WNW,287,4.0,9.0,2,0.00,,,0.00,Wunderground v.1.15,2013-06-20 23:08:00,
2013-06-20 16:13:00,105.0,-0.1,29.58,SW,229,8.0,10.0,2,0.00,,,0.00,Wunderground v.1.15,2013-06-20 23:13:00,
2013-06-20 16:18:00,104.3,-0.5,29.58,WSW,242,3.0,10.0,2,0.00,,,0.00,Wunderground v.1.15,2013-06-20 23:18:00,
2013-06-20 16:24:00,104.3,-0.5,29.58,WNW,302,1.0,11.0,2,0.00,,,0.00,Wunderground v.1.15,2013-06-20 23:24:00,
2013-06-20 16:29:00,103.9,-0.8,29.58,SW,229,2.0,11.0,2,0.00,,,0.00,Wunderground v.1.15,2013-06-20 23:29:00,
2013-06-20 16:34:00,103.4,-1.1,29.57,West,279,1.0,4.0,2,0.00,,,0.00,Wunderground v.1.15,2013-06-20 23:34:00,
2013-06-20 16:39:00,103.7,-0.9,29.57,SSW,213,1.0,8.0,2,0.00,,,0.00,Wunderground v.1.15,2013-06-20 23:39:00,
2013-06-20 16:44:00,103.9,-0.8,29.57,SW,230,0.0,11.0,2,0.00,,,0.00,Wunderground v.1.15,2013-06-20 23:44:00,
2013-06-20 16:49:00,103.8,-0.8,29.56,SW,220,10.0,11.0,2,0.00,,,0.00,Wunderground v.1.15,2013-06-20 23:49:00,
2013-06-20 16:54:00,104.1,-0.6,29.57,NW,318,7.0,15.0,2,0.00,,,0.00,Wunderground v.1.15,2013-06-20 23:54:00,
2013-06-20 16:59:00,103.3,-1.1,29.57,WNW,291,0.0,15.0,2,0.00,,,0.00,Wunderground v.1.15,2013-06-20 23:59:00,
2013-06-20 17:04:00,103.4,-1.1,29.57,SSW,207,2.0,5.0,2,0.00,,,0.00,Wunderground v.1.15,2013-06-21 00:04:00,
2013-06-20 17:09:00,104.0,-0.7,29.57,SW,227,1.0,5.0,2,0.00,,,0.00,Wunderground v.1.15,2013-06-21 00:09:00,
2013-06-20 17:14:00,104.1,-0.6,29.57,WNW,292,6.0,7.0,2,0.00,,,0.00,Wunderground v.1.15,2013-06-21 00:14:00,
2013-06-20 17:19:00,103.8,-0.8,29.57,North,355,4.0,9.0,2,0.00,,,0.00,Wunderground v.1.15,2013-06-21 00:19:00,
2013-06-20 17:25:00,103.3,-1.1,29.57,NW,313,10.0,12.0,2,0.00,,,0.00,Wunderground v.1.15,2013-06-21 00:25:00,
2013-06-20 17:30:00,102.8,-1.5,29.57,WNW,292,7.0,7.0,2,0.00,,,0.00,Wunderground v.1.15,2013-06-21 00:30:00,
2013-06-20 17:35:00,102.6,-1.6,29.57,NW,311,3.0,10.0,2,0.00,,,0.00,Wunderground v.1.15,2013-06-21 00:35:00,
2013-06-20 17:40:00,102.2,-1.8,29.57,SW,230,0.0,6.0,2,0.00,,,0.00,Wunderground v.1.15,2013-06-21 00:40:00,
2013-06-20 17:45:00,102.5,-1.6,29.57,WNW,288,1.0,7.0,2,0.00,,,0.00,Wunderground v.1.15,2013-06-21 00:45:00,
2013-06-20 17:50:00,102.6,-1.6,29.57,West,262,4.0,4.0,2,0.00,,,0.00,Wunderground v.1.15,2013-06-21 00:50:00,
2013-06-20 17:55:00,102.8,-1.5,29.57,West,281,8.0,11.0,2,0.00,,,0.00,Wunderground v.1.15,2013-06-21 00:55:00,
2013-06-20 18:01:00,102.0,6.8,29.57,WNW,298,0.0,5.0,3,0.00,,,0.00,Wunderground v.1.15,2013-06-21 01:01:00,
2013-06-20 18:06:00,102.0,6.8,29.57,NNW,339,4.0,5.0,3,0.00,,,0.00,Wunderground v.1.15,2013-06-21 01:06:00,
2013-06-20 18:11:00,101.9,6.7,29.57,WNW,296,4.0,8.0,3,0.00,,,0.00,Wunderground v.1.15,2013-06-21 01:11:00,
2013-06-20 18:16:00,101.3,6.3,29.57,WSW,244,3.0,8.0,3,0.00,,,0.00,Wunderground v.1.15,2013-06-21 01:16:00,
2013-06-20 18:21:00,101.2,6.3,29.57,WNW,296,3.0,8.0,3,0.00,,,0.00,Wunderground v.1.15,2013-06-21 01:21:00,
2013-06-20 18:26:00,100.9,6.1,29.58,West,280,5.0,9.0,3,0.00,,,0.00,Wunderground v.1.15,2013-06-21 01:26:00,
2013-06-20 18:32:00,100.7,5.9,29.57,WNW,288,0.0,6.0,3,0.00,,,0.00,Wunderground v.1.15,2013-06-21 01:32:00,
2013-06-20 18:37:00,100.5,5.8,29.57,WNW,285,3.0,6.0,3,0.00,,,0.00,Wunderground v.1.15,2013-06-21 01:37:00,
2013-06-20 18:42:00,100.7,5.9,29.58,WNW,290,1.0,3.0,3,0.00,,,0.00,Wunderground v.1.15,2013-06-21 01:42:00,
2013-06-20 18:47:00,100.4,5.7,29.58,NW,323,5.0,11.0,3,0.00,,,0.00,Wunderground v.1.15,2013-06-21 01:47:00,
2013-06-20 18:52:00,100.0,11.9,29.58,NNW,338,5.0,7.0,4,0.00,,,0.00,Wunderground v.1.15,2013-06-21 01:52:00,
2013-06-20 18:57:00,99.6,11.6,29.58,NW,320,8.0,8.0,4,0.00,,,0.00,Wunderground v.1.15,2013-06-21 01:57:00,
2013-06-20 19:02:00,99.1,11.3,29.58,NNW,338,5.0,6.0,4,0.00,,,0.00,Wunderground v.1.15,2013-06-21 02:02:00,
2013-06-20 19:07:00,98.6,10.9,29.58,NW,307,3.0,6.0,4,0.00,,,0.00,Wunderground v.1.15,2013-06-21 02:07:00,
2013-06-20 19:13:00,98.2,10.7,29.58,WNW,299,5.0,7.0,4,0.00,,,0.00,Wunderground v.1.15,2013-06-21 02:13:00,
2013-06-20 19:18:00,97.7,10.3,29.58,NNW,336,11.0,12.0,4,0.00,,,0.00,Wunderground v.1.15,2013-06-21 02:18:00,
2013-06-20 19:23:00,97.3,10.0,29.58,NW,320,8.0,8.0,4,0.00,,,0.00,Wunderground v.1.15,2013-06-21 02:23:00,
2013-06-20 19:28:00,96.8,9.7,29.58,NNW,344,3.0,8.0,4,0.00,,,0.00,Wunderground v.1.15,2013-06-21 02:28:00,
2013-06-20 19:33:00,96.4,14.5,29.58,NW,312,6.0,7.0,5,0.00,,,0.00,Wunderground v.1.15,2013-06-21 02:33:00,
2013-06-20 19:38:00,96.1,14.3,29.58,NNW,341,6.0,7.0,5,0.00,,,0.00,Wunderground v.1.15,2013-06-21 02:38:00,
2013-06-20 19:43:00,95.7,14.0,29.59,NW,321,4.0,9.0,5,0.00,,,0.00,Wunderground v.1.15,2013-06-21 02:43:00,
2013-06-20 19:48:00,95.5,13.8,29.59,NW,322,5.0,9.0,5,0.00,,,0.00,Wunderground v.1.15,2013-06-21 02:48:00,
2013-06-20 19:53:00,95.3,13.7,29.59,NNW,328,2.0,9.0,5,0.00,,,0.00,Wunderground v.1.15,2013-06-21 02:53:00,
2013-06-20 19:58:00,94.7,13.3,29.59,NNW,340,3.0,9.0,5,0.00,,,0.00,Wunderground v.1.15,2013-06-21 02:58:00,
2013-06-20 20:03:00,94.2,12.9,29.59,NW,321,3.0,4.0,5,0.00,,,0.00,Wunderground v.1.15,2013-06-21 03:03:00,
2013-06-20 20:08:00,93.8,16.8,29.59,NNW,328,1.0,5.0,6,0.00,,,0.00,Wunderground v.1.15,2013-06-21 03:08:00,
2013-06-20 20:13:00,93.3,16.5,29.60,NNW,332,1.0,4.0,6,0.00,,,0.00,Wunderground v.1.15,2013-06-21 03:13:00,
2013-06-20 20:18:00,93.3,20.1,29.60,NW,319,3.0,6.0,7,0.00,,,0.00,Wunderground v.1.15,2013-06-21 03:18:00,
2013-06-20 20:23:00,93.4,20.1,29.60,NNW,327,6.0,8.0,7,0.00,,,0.00,Wunderground v.1.15,2013-06-21 03:23:00,
2013-06-20 20:28:00,93.5,23.4,29.61,NW,310,4.0,9.0,8,0.00,,,0.00,Wunderground v.1.15,2013-06-21 03:28:00,
2013-06-20 20:34:00,93.3,23.2,29.61,WNW,300,7.0,10.0,8,0.00,,,0.00,Wunderground v.1.15,2013-06-21 03:34:00,
2013-06-20 20:39:00,93.0,23.0,29.61,NNW,333,0.0,10.0,8,0.00,,,0.00,Wunderground v.1.15,2013-06-21 03:39:00,
2013-06-20 20:44:00,92.6,25.5,29.61,NW,317,2.0,7.0,9,0.00,,,0.00,Wunderground v.1.15,2013-06-21 03:44:00,
2013-06-20 20:49:00,92.2,25.2,29.61,NW,323,5.0,8.0,9,0.00,,,0.00,Wunderground v.1.15,2013-06-21 03:49:00,
2013-06-20 20:54:00,92.1,25.1,29.62,NW,312,5.0,8.0,9,0.00,,,0.00,Wunderground v.1.15,2013-06-21 03:54:00,
2013-06-20 20:59:00,92.0,25.1,29.62,NW,321,6.0,8.0,9,0.00,,,0.00,Wunderground v.1.15,2013-06-21 03:59:00,
2013-06-20 21:01:00,92.0,25.1,29.62,NNW,331,8.0,9.0,9,0.00,,,0.00,Wunderground v.1.15,2013-06-21 04:01:00,
2013-06-20 21:02:00,91.9,25.0,29.62,NW,317,5.0,9.0,9,0.00,,,0.00,Wunderground v.1.15,2013-06-21 04:02:00,
2013-06-20 21:03:00,91.8,24.9,29.62,NW,322,4.0,10.0,9,0.00,,,0.00,Wunderground v.1.15,2013-06-21 04:03:00,
2013-06-20 21:06:00,91.6,22.0,29.62,NNW,337,6.0,10.0,8,0.00,,,0.00,Wunderground v.1.15,2013-06-21 04:06:00,
2013-06-20 21:12:00,91.3,21.7,29.62,NNW,333,7.0,9.0,8,0.00,,,0.00,Wunderground v.1.15,2013-06-21 04:12:00,
2013-06-20 21:17:00,91.1,21.6,29.63,NW,319,7.0,13.0,8,0.00,,,0.00,Wunderground v.1.15,2013-06-21 04:17:00,
2013-06-20 21:22:00,91.0,18.4,29.63,WNW,303,12.0,12.0,7,0.00,,,0.00,Wunderground v.1.15,2013-06-21 04:22:00,
2013-06-20 21:27:00,90.8,18.2,29.63,West,277,9.0,12.0,7,0.00,,,0.00,Wunderground v.1.15,2013-06-21 04:27:00,
2013-06-20 21:32:00,90.7,14.6,29.63,NNW,327,10.0,12.0,6,0.00,,,0.00,Wunderground v.1.15,2013-06-21 04:32:00,
2013-06-20 21:37:00,90.6,14.5,29.63,NNW,333,12.0,12.0,6,0.00,,,0.00,Wunderground v.1.15,2013-06-21 04:37:00,
2013-06-20 21:42:00,90.5,18.0,29.63,NW,304,8.0,10.0,7,0.00,,,0.00,Wunderground v.1.15,2013-06-21 04:42:00,
2013-06-20 21:47:00,90.5,18.0,29.63,NW,313,8.0,13.0,7,0.00,,,0.00,Wunderground v.1.15,2013-06-21 04:47:00,
2013-06-20 21:52:00,90.4,17.9,29.64,NW,320,9.0,13.0,7,0.00,,,0.00,Wunderground v.1.15,2013-06-21 04:52:00,
2013-06-20 21:57:00,90.2,17.8,29.64,NW,324,6.0,13.0,7,0.00,,,0.00,Wunderground v.1.15,2013-06-21 04:57:00,
2013-06-20 22:03:00,89.9,17.6,29.64,NW,317,8.0,10.0,7,0.00,,,0.00,Wunderground v.1.15,2013-06-21 05:03:00,
2013-06-20 22:08:00,89.6,17.4,29.64,NW,319,1.0,12.0,7,0.00,,,0.00,Wunderground v.1.15,2013-06-21 05:08:00,
2013-06-20 22:13:00,89.4,20.3,29.64,NNW,338,5.0,13.0,8,0.00,,,0.00,Wunderground v.1.15,2013-06-21 05:13:00,
2013-06-20 22:18:00,89.1,22.9,29.64,NNW,339,5.0,13.0,9,0.00,,,0.00,Wunderground v.1.15,2013-06-21 05:18:00,
2013-06-20 22:24:00,88.8,25.2,29.64,NNW,336,5.0,7.0,10,0.00,,,0.00,Wunderground v.1.15,2013-06-21 05:24:00,
2013-06-20 22:29:00,88.5,25.0,29.65,North,355,3.0,7.0,10,0.00,,,0.00,Wunderground v.1.15,2013-06-21 05:29:00,
2013-06-20 22:34:00,88.0,24.6,29.65,North,355,1.0,6.0,10,0.00,,,0.00,Wunderground v.1.15,2013-06-21 05:34:00,
2013-06-20 22:39:00,87.6,24.3,29.65,North,9,0.0,6.0,10,0.00,,,0.00,Wunderground v.1.15,2013-06-21 05:39:00,
2013-06-20 22:44:00,87.2,26.3,29.65,NNE,18,1.0,3.0,11,0.00,,,0.00,Wunderground v.1.15,2013-06-21 05:44:00,
2013-06-20 22:49:00,86.7,25.9,29.65,NNE,29,0.0,3.0,11,0.00,,,0.00,Wunderground v.1.15,2013-06-21 05:49:00,
2013-06-20 22:54:00,86.1,23.1,29.65,ENE,76,0.0,3.0,10,0.00,,,0.00,Wunderground v.1.15,2013-06-21 05:54:00,
2013-06-20 23:00:00,85.6,22.8,29.66,ENE,76,0.0,0.0,10,0.00,,,0.00,Wunderground v.1.15,2013-06-21 06:00:00,
2013-06-20 23:05:00,84.8,22.2,29.66,ENE,76,0.0,0.0,10,0.00,,,0.00,Wunderground v.1.15,2013-06-21 06:05:00,
2013-06-20 23:10:00,84.0,23.8,29.66,ENE,76,0.0,0.0,11,0.00,,,0.00,Wunderground v.1.15,2013-06-21 06:10:00,
2013-06-20 23:15:00,83.9,23.7,29.66,ENE,76,0.0,0.0,11,0.00,,,0.00,Wunderground v.1.15,2013-06-21 06:15:00,
2013-06-20 23:20:00,84.0,23.8,29.66,ENE,76,0.0,0.0,11,0.00,,,0.00,Wunderground v.1.15,2013-06-21 06:20:00,
2013-06-20 23:25:00,83.7,25.7,29.66,ENE,76,0.0,1.0,12,0.00,,,0.00,Wunderground v.1.15,2013-06-21 06:25:00,
2013-06-20 23:30:00,83.7,25.7,29.66,ENE,76,0.0,1.0,12,0.00,,,0.00,Wunderground v.1.15,2013-06-21 06:30:00,
2013-06-20 23:36:00,82.9,25.1,29.66,ENE,76,0.0,1.0,12,0.00,,,0.00,Wunderground v.1.15,2013-06-21 06:36:00,
2013-06-20 23:41:00,81.4,25.8,29.66,ENE,76,0.0,0.0,13,0.00,,,0.00,Wunderground v.1.15,2013-06-21 06:41:00,
2013-06-20 23:46:00,80.8,25.3,29.66,ENE,76,0.0,0.0,13,0.00,,,0.00,Wunderground v.1.15,2013-06-21 06:46:00,
2013-06-20 23:51:00,81.3,27.5,29.66,ENE,76,0.0,0.0,14,0.00,,,0.00,Wunderground v.1.15,2013-06-21 06:51:00,
2013-06-20 23:56:00,81.7,26.0,29.66,ENE,76,0.0,0.0,13,0.00,,,0.00,Wunderground v.1.15,2013-06-21 06:56:00,